| time (UTC) | temp F | wind direction | speed knots | gust knots | rain 1hr in | rain 24hr in | rain mn in | humidity % | barometer mb |
| 20260506121004 | 86 | 182 | 3.5 | 14.8 | 0.00 | 0.00 | 0.00 | 20 | 1009.5 |
| 20260506115004 | 86 | 254 | 7.0 | 12.2 | 0.00 | 0.00 | 0.00 | 20 | 1009.5 |
| 20260506114005 | 87 | 271 | 2.6 | 13.0 | 0.00 | 0.00 | 0.00 | 20 | 1009.5 |
| 20260506113005 | 86 | 245 | 7.0 | 12.2 | 0.00 | 0.00 | 0.00 | 20 | 1009.4 |
| 20260506110005 | 83 | 259 | 3.5 | 13.9 | 0.00 | 0.00 | 0.00 | 22 | 1009.4 |
| 20260506105005 | 83 | 290 | 3.5 | 11.3 | 0.00 | 0.00 | 0.00 | 22 | 1009.6 |
| 20260506103005 | 83 | 201 | 6.1 | 21.7 | 0.00 | 0.00 | 0.00 | 22 | 1009.4 |
| 20260506101005 | 83 | 196 | 7.0 | 15.6 | 0.00 | 0.00 | 0.00 | 22 | 1009.4 |
| 20260506100004 | 82 | 191 | 7.8 | 20.0 | 0.00 | 0.00 | 0.00 | 20 | 1009.7 |
| 20260506095004 | 82 | 214 | 7.8 | 14.8 | 0.00 | 0.00 | 0.00 | 20 | 1009.5 |
| 20260506094005 | 82 | 207 | 7.0 | 16.5 | 0.00 | 0.00 | 0.00 | 20 | 1009.8 |
| 20260506093005 | 81 | 196 | 9.6 | 14.8 | 0.00 | 0.00 | 0.00 | 21 | 1009.6 |
| 20260506092004 | 80 | 231 | 7.8 | 20.0 | 0.00 | 0.00 | 0.00 | 22 | 1009.9 |
| 20260506090005 | 80 | 195 | 10.4 | 17.4 | 0.00 | 0.00 | 0.00 | 23 | 1009.7 |
| 20260506085005 | 79 | 209 | 7.0 | 18.2 | 0.00 | 0.00 | 0.00 | 22 | 1009.8 |
| 20260506084004 | 78 | 225 | 11.3 | 17.4 | 0.00 | 0.00 | 0.00 | 24 | 1009.6 |
| 20260505211004 | 65 | 187 | 1.7 | 3.5 | 0.00 | 0.00 | 0.00 | 30 | 1010.5 |
| 20260505210004 | 66 | 195 | 2.6 | 4.3 | 0.00 | 0.00 | 0.00 | 30 | 1010.5 |
| 20260505205003 | 67 | 202 | 2.6 | 7.0 | 0.00 | 0.00 | 0.00 | 28 | 1010.5 |
| 20260505204004 | 67 | 200 | 4.3 | 8.7 | 0.00 | 0.00 | 0.00 | 28 | 1010.6 |
| 20260505203004 | 68 | 195 | 2.6 | 7.8 | 0.00 | 0.00 | 0.00 | 27 | 1010.6 |
| 20260505201004 | 69 | 188 | 4.3 | 7.0 | 0.00 | 0.00 | 0.00 | 25 | 1010.6 |
| 20260505200004 | 69 | 199 | 5.2 | 9.6 | 0.00 | 0.00 | 0.00 | 24 | 1010.5 |
| 20260505194004 | 70 | 195 | 4.3 | 9.6 | 0.00 | 0.00 | 0.00 | 22 | 1010.3 |
| 20260505193004 | 70 | 177 | 6.1 | 9.6 | 0.00 | 0.00 | 0.00 | 22 | 1010.2 |
| 20260505192003 | 70 | 190 | 4.3 | 8.7 | 0.00 | 0.00 | 0.00 | 22 | 1010.2 |
| 20260505191004 | 71 | 183 | 6.1 | 10.4 | 0.00 | 0.00 | 0.00 | 22 | 1010.3 |
| 20260505185003 | 71 | 197 | 3.5 | 10.4 | 0.00 | 0.00 | 0.00 | 21 | 1010.2 |
| 20260505183005 | 72 | 203 | 3.5 | 7.0 | 0.00 | 0.00 | 0.00 | 19 | 1010.0 |
| 20260505182004 | 72 | 174 | 3.5 | 8.7 | 0.00 | 0.00 | 0.00 | 19 | 1010.2 |
| 20260505180004 | 74 | 181 | 4.3 | 7.8 | 0.00 | 0.00 | 0.00 | 20 | 1009.9 |
| 20260505175003 | 75 | 187 | 3.5 | 9.6 | 0.00 | 0.00 | 0.00 | 18 | 1010.1 |
| 20260505174004 | 76 | 178 | 3.5 | 9.6 | 0.00 | 0.00 | 0.00 | 16 | 1010.2 |
| 20260505152004 | 87 | 187 | 9.6 | 13.0 | 0.00 | 0.00 | 0.00 | 10 | 1010.0 |
| 20260505151003 | 89 | 176 | 7.0 | 9.6 | 0.00 | 0.00 | 0.00 | 10 | 1010.2 |
| 20260505125004 | 92 | 209 | 9.6 | 14.8 | 0.00 | 0.00 | 0.00 | 12 | 1011.5 |
| 20260505123004 | 92 | 201 | 7.8 | 12.2 | 0.00 | 0.00 | 0.00 | 12 | 1011.9 |
| 20260505122003 | 91 | 186 | 7.8 | 19.1 | 0.00 | 0.00 | 0.00 | 10 | 1012.0 |